Location: Angostura
(40.3371°N, 5.3490°W)
Time: 15:47:33
(UTC+00:00)

Daily predictions for brighter satellites

Satellite Brightness Start Highest point End
(mag) Time Altitude Azimuth Time Altitude Azimuth Time Altitude Azimuth
Cosmos 1656 Rocket 4.1 20:08:35 10° NNW 20:14:01 64° WSW 20:19:29 10° S
CZ-4 R/B 2.4 20:11:02 10° S 20:14:41 45° W 20:18:25 10° NNW
USA 59 Rocket 2.2 20:12:46 10° N 20:15:07 15° NE 20:17:49 10° E
CSL-04 Rocket 3.6 20:10:05 10° SSE 20:15:20 74° ENE 20:20:36 10° N
CZ-4C R/B 4.4 20:12:20 10° NE 20:15:46 27° E 20:19:15 10° SSE
Cosmos 494 Rocket 4.3 20:11:11 10° SSW 20:16:15 73° WNW 20:21:23 10° NNE
Cosmos 2297 4.3 20:10:40 10° NNW 20:16:19 61° WSW 20:21:54 10° S
Cosmos 2056 Rocket 4.5 20:14:32 10° NNW 20:19:40 49° WSW 20:24:42 10° S
Resurs 01 Rocket 1.7 20:16:00 10° SSE 20:20:25 89° E 20:24:52 10° NNW
Cosmos 1766 Rocket 3.6 20:15:59 10° N 20:20:27 74° E 20:24:54 10° SSE
CSL-04 Debris 4.3 20:17:19 10° SSE 20:22:47 87° WSW 20:28:16 10° NNW
Okean O Rocket 1.6 20:18:32 10° SSE 20:22:57 78° ENE 20:27:23 10° N
CARTOSAT-1 3.5 20:18:50 10° SSE 20:23:06 88° ENE 20:27:22 10° NNW
Cosmos 1452 Rocket 3.9 20:18:00 10° N 20:23:06 50° ENE 20:28:11 10° SE
USA 306 2.6 20:21:42 10° NW 20:25:27 77° NE 20:29:14 11° SE
PSLV R/B 3.6 20:21:46 10° SSE 20:25:27 79° ENE 20:29:07 10° N
Cosmos 468 4.5 20:21:15 10° S 20:26:25 70° ESE 20:31:36 10° NNE
Tsikada Rocket 4.1 20:20:18 10° S 20:26:30 85° W 20:32:50 10° N
Terra 3.6 20:24:54 10° ESE 20:27:52 17° ENE 20:30:50 10° NNE
ISS -3.3 20:25:15 10° WNW 20:28:33 54° SW 20:31:41 11° SE
Hubble Space Telescope 2.6 20:27:27 10° SSW 20:29:39 14° S 20:31:46 10° SE
USA 32 4.0 20:28:09 10° S 20:33:22 80° E 20:38:37 10° N
MOS 1-B Rocket 4.4 20:28:59 10° SSE 20:36:26 86° ENE 20:42:47 10° NNW
Cosmos 1603 3.7 20:31:04 10° SSW 20:36:44 84° ESE 20:42:28 10° NNE
SeaSat 1 2.6 20:32:57 10° SSE 20:37:51 74° WSW 20:42:46 10° NNW
Okean 1 4.0 20:34:57 10° SSE 20:38:25 32° E 20:41:54 10° NNE
Cosmos 2369 Rocket 2.9 20:33:09 10° NNW 20:38:34 52° WSW 20:43:59 10° S
Centaur D AC-29 3.5 20:34:58 10° SSW 20:39:16 26° SSE 20:51:06 10° E
DELTA 2 R/B (1) 3.9 20:37:15 10° SW 20:42:31 43° SSE 20:47:48 10° E
Cosmos 1408 Rocket 4.3 20:38:26 10° N 20:42:36 38° ENE 20:46:02 14° SE
Cosmos 1151 Rocket 4.5 20:43:17 14° SE 20:45:32 20° E 20:48:42 10° NE
OAO 3 Rocket 4.3 20:42:41 10° SSW 20:46:31 24° SSE 20:49:34 14° ESE
USA 307 3.3 20:50:53 10° NW 20:50:57 11° NW 20:50:57 11° NW
Cosmos 1331 Rocket 4.0 20:52:36 10° NNW 20:57:50 89° WSW 21:02:18 14° SSE
NOSS 3-3 (A) 4.1 20:55:01 10° S 20:59:53 38° ESE 21:05:18 10° NE
Meteor 1-19 Rocket 4.4 20:57:41 10° S 21:03:25 57° E 21:08:58 10° NNE
Cosmos 1536 2.7 21:03:44 10° N 21:07:40 77° E 21:10:21 20° SSE
MetOp-B 4.1 21:03:57 15° SSE 21:08:26 80° ENE 21:13:48 10° N
Meteor 1-10 Rocket 4.3 21:02:54 10° SSW 21:08:36 80° W 21:14:14 10° N
Cosmos 1110 Rocket 4.4 21:04:34 10° NNW 21:09:49 63° WSW 21:14:23 13° S
Molniya-1 3.8 21:07:50 10° SSW 21:10:55 51° ESE 21:17:29 10° NE
Cosmos 1340 3.2 21:08:17 10° N 21:11:24 34° ENE 21:12:29 27° ESE
Okean-O 3.1 21:09:26 11° S 21:13:33 57° W 21:17:54 10° NNW
Nadezhda 4 Rocket 4.1 21:09:09 14° SSE 21:14:25 56° E 21:20:31 10° NNE
USA 245 2.9 21:14:21 32° E 21:14:29 32° ENE 21:16:44 10° N
Spot 2 Rocket 4.0 21:12:30 21° SE 21:15:25 43° ENE 21:20:11 10° N
Cosmos 1626 4.0 21:17:57 12° ENE 21:17:57 12° ENE 21:18:53 10° ENE
Cosmos 2279 Rocket 4.1 21:11:10 10° N 21:17:22 78° W 21:23:10 12° S
Meteor 2-10 4.1 21:12:31 10° N 21:17:54 66° ENE 21:21:14 22° SSE
Cosmos 1500 Rocket 3.4 21:14:53 10° N 21:19:12 71° E 21:21:38 25° SSE
SPOT 5 2.7 21:17:09 18° S 21:20:28 77° WSW 21:24:50 10° NNW
Meteor 1-11 Rocket 3.8 21:17:15 10° N 21:23:01 84° W 21:27:34 17° S
BREEZE-M DEB (TANK) 3.9 21:06:15 10° SW 21:24:56 82° SE 21:29:07 10° NE
Cosmos 1726 3.3 21:22:48 10° NNW 21:25:37 31° W 21:27:48 14° SSW
Sich 1 3.0 21:22:25 10° N 21:26:48 72° E 21:28:59 28° SSE
Cosmos 1805 Rocket 3.5 21:26:27 10° N 21:30:52 80° E 21:33:05 29° SSE
Meteor 2-9 Rocket 4.3 21:26:29 10° N 21:32:23 90° W 21:36:17 22° S
Cosmos 1733 2.8 21:29:01 10° N 21:32:31 79° E 21:33:38 41° SSE
Orbus 7S? 4.3 21:24:58 10° SSW 21:32:50 47° SE 21:36:36 10° ENE
NOSS 3-3 (C) 3.6 21:28:14 10° SSW 21:33:24 68° ESE 21:39:23 10° NE
Cosmos 1633 Rocket 4.5 21:30:26 10° NNE 21:33:57 23° ENE 21:34:53 21° E
Ariane Rocket 3.0 21:36:07 30° SSE 21:38:39 70° ENE 21:43:43 10° N
Cosmos 1666 Rocket 4.5 21:36:08 10° NNE 21:39:58 31° ENE 21:40:50 28° E
Meteor 2-4 Rocket 3.8 21:46:32 28° SSE 21:49:40 64° E 21:55:33 10° NNE
ERS-1 Rocket 3.2 21:48:08 26° S 21:50:56 63° WSW 21:55:57 10° NNW
Cosmos 1340 Rocket 3.8 21:47:51 13° SSW 21:51:06 44° WNW 21:54:56 10° N
Cosmos 2026 Rocket 4.1 21:49:44 30° SSE 21:52:47 59° E 21:58:52 10° NNE
SPOT 3 Rocket 3.4 21:51:13 34° SSE 21:53:29 87° ENE 21:58:39 10° NNW
Cosmos 614 Rocket 4.5 21:49:20 10° SSW 21:54:27 60° WNW 21:59:38 10° NNE
Lacrosse 4 Rocket 1.5 21:52:35 10° NNW 21:56:41 64° ENE 21:57:32 50° ESE
Cosmos 1818 4.0 21:51:41 10° SW 21:57:04 65° NW 22:02:32 10° NNE
Spot 1 3.9 21:55:37 10° NNE 21:59:48 76° ESE 22:01:02 46° S
Cosmos 1607 4.1 21:58:34 29° S 22:01:40 53° ESE 22:07:57 10° NE
USA 59 Rocket 0.4 22:00:37 10° NW 22:04:56 75° WSW 22:06:49 41° SSE
Terra 2.4 22:02:56 30° SSW 22:05:01 52° W 22:09:37 10° NNW
Cosmos 1805 3.1 22:03:05 10° N 22:06:48 76° W 22:07:12 66° SSW
Cosmos 1627 Rocket 4.4 22:03:59 32° S 22:07:06 75° E 22:13:21 10° N
NOSS 2-1 (E) 4.0 22:03:41 10° NW 22:08:01 70° WSW 22:09:48 42° SSE
Cosmos 1833 Rocket 2.7 22:07:46 40° SSE 22:09:35 60° ESE 22:15:07 10° NNE
Cosmos 1766 4.3 22:06:31 10° NNE 22:09:34 30° ENE 22:09:34 30° ENE
IRIDIUM 106 4.3 22:06:38 10° N 22:11:52 72° E 22:13:18 48° SSE
Cosmos 1269 Rocket 4.1 22:12:55 26° SSW 22:15:56 77° WNW 22:21:14 10° NNE
Cosmos 1656 3.5 22:11:26 10° NNW 22:16:56 89° ENE 22:18:33 48° SSE
NOSS 2-1 (D) 4.4 22:16:57 10° NW 22:21:11 50° WSW 22:22:30 41° SSW
Cosmos 2082 Rocket 3.7 22:23:57 20° E 22:23:57 20° E 22:27:16 10° NE
Landsat 5 3.8 22:22:47 10° N 22:26:30 54° WNW 22:27:17 44° WSW
DELTA 2 R/B (1) 3.4 22:23:05 10° W 22:28:42 80° S 22:31:29 31° E
Cosmos 1975 3.1 22:24:51 10° NNW 22:28:42 55° W 22:28:58 53° WSW
OAO 3 Rocket 4.4 22:24:45 10° WSW 22:27:13 27° SW 22:27:13 27° SW
Cosmos 1553 Rocket 4.1 22:27:49 10° N 22:33:48 56° E 22:35:15 46° SE
Cosmos 2360 4.2 22:29:58 10° NNW 22:35:43 75° ENE 22:37:00 54° SE
Cosmos 724 4.1 22:34:34 43° SSW 22:36:35 78° ESE 22:42:26 10° NNE
ARIANE 5 R/B 3.2 22:40:25 43° ENE 22:40:25 43° ENE 22:44:27 10° N
GEOS 3 Rocket 3.5 22:35:30 10° NE 22:40:41 90° NW 22:42:27 42° SW
Cosmos 1328 Rocket 4.3 22:42:02 41° WSW 22:42:55 47° W 22:47:05 10° N
USA 281 3.2 22:41:02 47° SSE 22:43:09 82° WSW 22:49:48 10° NNW
Cosmos 1023 Rocket 4.4 22:48:16 62° SSW 22:49:12 87° WNW 22:54:27 10° NNE
Cosmos 2285 Rocket 3.9 22:48:47 55° SSE 22:50:04 69° ESE 22:56:23 10° NNE
Cosmos 1626 3.8 22:50:44 24° WNW 22:50:44 24° WNW 22:53:14 10° NNW
MetOp-A 4.4 22:52:03 42° WSW 22:52:42 45° W 22:57:29 10° NNW
Cosmos 1515 Rocket 3.5 22:54:05 78° NNW 22:54:05 78° NNW 22:58:11 10° N
CZ-2C R/B 3.5 22:49:30 10° NNE 22:53:46 80° NE 22:53:46 80° NE
Cosmos 1140 Rocket 3.4 22:54:17 63° SW 22:55:08 82° WNW 23:00:23 10° NNE
BREEZE-M DEB (TANK) 3.7 22:55:12 14° WSW 22:58:36 77° NNW 23:13:05 10° ENE
Cosmos 1707 3.9 23:00:27 36° NNE 23:00:27 36° NNE 23:02:45 10° NNE
Cosmos 2266 Rocket 4.1 23:02:10 53° ESE 23:02:58 58° E 23:09:06 10° NNE
PSLV R/B 4.4 23:03:32 10° NNE 23:06:48 57° N 23:06:48 57° N
Cosmos 1470 Rocket 4.1 23:04:38 10° NNW 23:08:45 50° W 23:08:45 50° W
Cosmos 1869 Rocket 4.4 23:06:24 10° N 23:10:01 42° NE 23:10:01 42° NE
NOSS 3-4 (A) 4.0 23:03:48 10° NNW 23:10:49 68° NE 23:13:38 42° ESE
NOSS 3-4 (C) 4.1 23:03:54 10° NNW 23:10:55 67° NE 23:13:46 42° ESE
Cosmos 1633 Rocket 4.5 23:07:50 10° NNW 23:11:38 29° W 23:11:54 28° W
Cosmos 1697 Rocket 2.5 23:06:45 10° NNW 23:12:24 81° WSW 23:12:51 74° SSW
In-Cosmos 22 4.3 23:12:55 61° ESE 23:13:10 61° E 23:18:47 10° NNE
Cosmos 1674 4.2 23:18:27 30° NW 23:18:27 30° NW 23:20:46 10° N
Cosmos 1842 4.5 23:19:04 37° NW 23:19:04 37° NW 23:21:43 10° N
Lacrosse 5 rocket 3.2 23:14:46 10° NNW 23:18:11 24° NNE 23:19:04 22° NE
SL-8 R/B 3.9 23:16:42 10° WNW 23:21:26 65° NNE 23:21:28 65° NNE
Cosmos 1980 Rocket 2.4 23:17:04 10° NNW 23:22:42 58° ENE 23:23:22 54° E
Cosmos 44 Rocket 3.7 23:20:18 10° NW 23:24:27 52° W 23:24:27 52° W
Cosmos 1655 Rocket 4.1 23:26:16 59° ESE 23:26:57 62° E 23:33:15 10° NNE
Cosmos 540 Rocket 4.3 23:25:17 10° N 23:30:07 38° ENE 23:30:28 38° ENE
Cosmos 1763 Rocket 3.8 23:27:26 10° N 23:32:40 57° ENE 23:32:48 56° ENE
Cosmos 1933 Rocket 4.3 23:29:36 10° NNW 23:33:13 48° WNW 23:33:13 48° WNW
H-2A R/B 3.2 23:37:54 52° NW 23:37:54 52° NW 23:41:15 10° NNW
Cosmos 407 Rocket 4.0 23:36:25 47° W 23:37:13 52° WNW 23:42:21 10° N
GP-B 4.3 23:35:09 10° NNE 23:38:18 34° NE 23:38:18 34° NE
CZ-3 Stage 3 3.6 23:18:28 10° WSW 23:42:47 49° S 23:43:39 48° S
Cosmos 676 Rocket 4.4 23:44:45 54° ENE 23:44:45 54° ENE 23:49:22 10° NNE
Cosmos 1954 Rocket 4.1 23:45:26 69° ENE 23:45:26 69° ENE 23:50:18 10° NNE
ALOS 2 3.1 23:49:40 57° N 23:49:40 57° N 23:53:14 10° N
Cosmos 2369 3.7 23:44:44 10° NNW 23:50:28 75° ENE 23:50:46 72° E
Cosmos 1190 Rocket 4.0 23:51:06 73° WNW 23:51:07 73° WNW 23:56:26 10° NNE
